Weather in Pushkari

Russia / Ryazan Oblast     54°16′32″N   39°05′16″E
temp.,
°C
wind,
m/s
gust,
m/s
humid.,
%
clouds,
%
prec.,
mm/h
press.,
hPa
HPBL,
m
7 march, sun
sun700:00−13wsw45880 0.0 101671
03:00−12sw510910 0.0 1014174
06:00−10sw6138956 0.0 1011299
09:00−7sw10188678 0.0 1006743
12:00−5sw111890100 0.3 10011106
15:00−3sw111793100 1.1 9971221
18:00−2sw101889100 0.7 9941112
21:00−5wnw41189100 2.3 994432
8 march, mon
mon800:00−7w7167867 0.4 997628
03:00−8wsw7158533 0.4 999409
06:00−9wsw5128929 0.0 999346
09:00−7wsw6129159 0.1 999674
12:00−5w7118395 0.1 10001191
15:00−5wnw7107797 0.3 10021184
18:00−8wnw4108716 0.0 1004206
21:00−11nw47908 0.0 1008110
9 march, tue
tue900:00−14nw34950 0.0 101037
03:00−15nw349523 0.0 101148
06:00−15nw3396100 0.0 101354
09:00−13nnw479498 0.1 1014306
12:00−12nnw4690100 0.1 1015524
15:00−11nw4687100 0.1 1017642
18:00−14nnw359293 0.0 101885
21:00−17nnw349347 0.0 102079
10 march, wed
wed1000:00−20nnw349720 0.0 102251
03:00−23nnw349610 0.0 102358
06:00−25nw34960 0.0 102559
09:00−23nnw34960 0.0 1026145
12:00−18nnw348610 0.0 1027316
15:00−16nnw23805 0.0 1027398
18:00−19wnw11900 0.0 102720
21:00−21wnw11910 0.0 102920
11 march, thu
thu1100:00−22sw11920 0.0 102920
03:00−22ssw23880 0.0 103020
06:00−22ssw338739 0.0 102922
09:00−18s468467 0.0 1029179
12:00−13s5894100 0.3 1028349
15:00−10ssw5891100 0.4 1027415
18:00−12s5109272 0.0 1026249
21:00−13ssw5129336 0.0 1026229